Spokane Fairchild, WA
on Sunday, January 27, 2013

Sunday
Previous Day Next Day
Daily Summary
 ActualAverage (KGEG)Record (KGEG)
Temperature
Mean Temperature °F 31°F  
Max Temperature 30°F 36°F 54°F (1899)
Min Temperature 24°F 26°F -18°F (1957)
Degree Days
Heating Degree Days 38 34  
Month to date heating degree days 963  
Since 1 July heating degree days 3797  
Cooling Degree Days 0 0  
Month to date cooling degree days 0  
Year to date cooling degree days 0  
Moisture
Dew Point 27°F   
Average Humidity 100    
Maximum Humidity 100    
Minimum Humidity 100    
Precipitation
Precipitation 0.01 in 0.05 in 0.68 in (1954)
Month to date precipitation 1.60  
Year to date precipitation 1.60  
Snow
Snow 0.00 in 0.30 in 8.10 in (1954)
Month to date snowfall 10.3  
Since 1 July snowfall 32.4  
Snow Depth 2.00 in   
Wind
Wind Speed 6 mph   
Max Wind Speed 10 mph   
Max Gust Speed mph   
Visibility 6 miles   
Events Fog , Snow   

Key: T is trace of precipitation, MM is missing value
Source: NWS Daily Summary
Time(PST)TemperatureDew PointHumidity Pressure Visibility Wind DirectionWind SpeedGust SpeedPrecipitationEvents Conditions
12:55 AM 27.9°F 27.9°F 100% 29.98 in 8.0 miles SSW 8.1 mph - N/A   Overcast
1:42 AM 26.6°F 26.6°F 100% 29.98 in 5.0 miles SSE 9.2 mph - N/A   Light Freezing Drizzle
1:55 AM 27.3°F 27.3°F 100% 29.99 in 5.0 miles SSW 5.8 mph - 0.00 in Snow Light Snow
2:55 AM 27.0°F 27.0°F 100% 29.99 in 8.0 miles SSW 4.6 mph - 0.00 in Snow Light Snow
3:10 AM 26.6°F 26.6°F 100% 29.99 in 5.0 miles South 5.8 mph - N/A   Overcast
3:29 AM 26.6°F 26.6°F 100% 29.99 in 4.0 miles SSW 10.4 mph - N/A   Overcast
3:55 AM 26.2°F 26.2°F 100% 29.98 in 4.0 miles SW 9.2 mph - 0.00 in   Overcast
4:23 AM 26.6°F 26.6°F 100% 29.99 in 1.8 miles SSW 8.1 mph - N/A Snow Light Snow
4:55 AM 25.5°F 25.5°F 100% 30.01 in 2.0 miles SW 9.2 mph - 0.00 in Snow Light Snow
5:57 AM 25.3°F 25.3°F 100% 30.01 in 1.0 miles SW 9.2 mph - 0.00 in   Mist
6:28 AM 24.8°F 24.8°F 100% 30.01 in 0.5 miles SW 8.1 mph - N/A Fog , Snow Light Snow
6:55 AM 25.5°F 25.5°F 100% 30.01 in 0.5 miles WSW 6.9 mph - 0.00 in Fog , Snow Light Snow
7:09 AM 24.8°F 24.8°F 100% 29.92 in 1.8 miles SSW 5.8 mph - N/A   Overcast
7:14 AM 24.8°F 24.8°F 100% 29.92 in 2.0 miles South 5.8 mph - N/A   Overcast
7:24 AM 24.8°F 24.8°F 100% 29.92 in 0.8 miles South 5.8 mph - N/A Snow Light Snow
7:29 AM 24.8°F 24.8°F 100% 29.93 in 0.5 miles South 5.8 mph - N/A Fog , Snow Light Snow
7:34 AM 24.8°F 24.8°F 100% 29.93 in 1.0 miles South 5.8 mph - N/A Snow Light Snow
7:39 AM 24.8°F 24.8°F 100% 29.93 in 1.8 miles SW 6.9 mph - N/A   Overcast
7:44 AM 24.8°F 24.8°F 100% 29.93 in 3.0 miles SW 8.1 mph - N/A   Overcast
7:58 AM 25.5°F 25.5°F 100% 30.01 in 9.0 miles SW 6.9 mph - 0.00 in   Overcast
8:05 AM 24.8°F 24.8°F 100% 29.94 in 8.0 miles SW 6.9 mph - N/A Snow Light Snow
8:13 AM 24.8°F 24.8°F 100% 29.94 in 2.5 miles SW 4.6 mph - N/A Snow Light Snow
8:28 AM 26.6°F 26.6°F 100% 29.94 in 4.0 miles SW 5.8 mph - N/A Snow Light Snow
8:43 AM 26.6°F 26.6°F 100% 29.94 in 2.5 miles WSW 4.6 mph - N/A Snow Light Snow
8:48 AM 26.6°F 26.6°F 100% 29.94 in 1.8 miles SW 5.8 mph - N/A   Overcast
8:53 AM 26.6°F 26.6°F 100% 29.94 in 2.0 miles SW 4.6 mph - N/A   Overcast
8:58 AM 26.6°F 26.6°F 100% 30.04 in 2.5 miles SW 5.8 mph - N/A Snow Light Snow
9:09 AM 26.6°F 26.6°F 100% 29.95 in 1.0 miles WSW 5.8 mph - N/A Snow Light Snow
9:14 AM 26.6°F 26.6°F 100% 29.95 in 0.8 miles WSW 5.8 mph - N/A Snow Light Snow
9:29 AM 26.6°F 26.6°F 100% 29.95 in 0.8 miles WSW 6.9 mph - N/A Snow Light Snow
9:34 AM 26.6°F 26.6°F 100% 29.95 in 1.0 miles WSW 5.8 mph - N/A Snow Light Snow
9:39 AM 26.6°F 26.6°F 100% 29.95 in 1.2 miles West 5.8 mph - N/A Snow Light Snow
9:44 AM 26.6°F 26.6°F 100% 29.95 in 1.0 miles WSW 5.8 mph - N/A Snow Light Snow
9:49 AM 26.6°F 26.6°F 100% 29.95 in 0.8 miles WSW 5.8 mph - N/A   Mist
9:54 AM 26.6°F 26.6°F 100% 29.95 in 1.0 miles WSW 6.9 mph - N/A   Mist
9:58 AM 26.6°F 26.6°F 100% 30.04 in 1.2 miles WSW 5.8 mph - 0.00 in   Overcast
10:03 AM 26.6°F 26.6°F 100% 29.95 in 2.5 miles WSW 6.9 mph - N/A   Overcast
10:08 AM 26.6°F 26.6°F 100% 29.95 in 4.0 miles SW 6.9 mph - N/A   Overcast
10:20 AM 26.6°F 26.6°F 100% 29.95 in 4.0 miles SW 4.6 mph - N/A   Overcast
10:29 AM 26.6°F 26.6°F 100% 29.95 in 9.0 miles SSW 6.9 mph - N/A   Overcast
10:44 AM 26.6°F 26.6°F 100% 29.95 in 8.0 miles WSW 3.5 mph - N/A   Overcast
10:53 AM 26.6°F 26.6°F 100% 29.95 in 10.0 miles SSW 4.6 mph - N/A   Overcast
10:58 AM 26.8°F 26.8°F 100% 30.04 in 10.0 miles SSW 3.5 mph - 0.00 in   Overcast
11:18 AM 26.6°F 26.6°F 100% 29.95 in 10.0 miles SW 6.9 mph - N/A Snow Light Snow
11:39 AM 26.6°F 26.6°F 100% 29.94 in 10.0 miles SW 4.6 mph - N/A   Overcast
11:44 AM 26.6°F 26.6°F 100% 29.94 in 10.0 miles SW 6.9 mph - N/A Snow Light Snow
11:58 AM 27.7°F 27.7°F 100% 30.03 in 10.0 miles SSW 4.6 mph - 0.00 in   Overcast
12:38 PM 28.4°F 28.4°F 100% 29.93 in 3.0 miles SW 9.2 mph - N/A   Overcast
12:56 PM 28.4°F 28.4°F 100% 29.92 in 5.0 miles SSW 6.9 mph - N/A   Overcast
12:59 PM 28.2°F 28.2°F 100% 30.01 in 6.0 miles SSW 6.9 mph - 0.00 in   Overcast
1:06 PM 28.4°F 28.4°F 100% 29.92 in 10.0 miles SW 6.9 mph - N/A   Overcast
1:16 PM 28.4°F 28.4°F 100% 29.92 in 10.0 miles SSW 5.8 mph - N/A   Overcast
1:36 PM 26.6°F 26.6°F 100% 29.92 in 10.0 miles South 6.9 mph - N/A   Overcast
1:51 PM 28.4°F 28.4°F 100% 29.91 in 10.0 miles SSW 6.9 mph - N/A   Overcast
1:56 PM 28.4°F 28.4°F 100% 29.91 in 10.0 miles SSW 6.9 mph - N/A   Overcast
1:59 PM 28.4°F 28.4°F 100% 30.00 in 10.0 miles SSW 5.8 mph - 0.00 in   Overcast
2:29 PM 28.4°F 28.4°F 100% 29.91 in 10.0 miles SW 6.9 mph - N/A   Overcast
2:47 PM 28.4°F 28.4°F 100% 29.91 in 10.0 miles South 5.8 mph - N/A   Overcast
2:52 PM 28.4°F 28.4°F 100% 29.91 in 10.0 miles South 8.1 mph - N/A   Overcast
2:58 PM 28.0°F 28.0°F 100% 30.00 in 10.0 miles SSW 6.9 mph - 0.00 in   Overcast
3:05 PM 28.4°F 28.4°F 100% 29.91 in 10.0 miles South 6.9 mph - N/A   Overcast
3:39 PM 26.6°F 26.6°F 100% 29.92 in 10.0 miles SSW 6.9 mph - N/A   Overcast
3:50 PM 28.4°F 28.4°F 100% 29.91 in 10.0 miles South 5.8 mph - N/A   Overcast
3:58 PM 27.7°F 27.7°F 100% 30.01 in 10.0 miles South 8.1 mph - N/A   Overcast
3:59 PM 28.4°F 28.4°F 100% 29.92 in 10.0 miles South 6.9 mph - N/A   Overcast
4:21 PM 28.4°F 28.4°F 100% 29.91 in 7.0 miles South 8.1 mph - N/A   Overcast
4:27 PM 28.4°F 28.4°F 100% 29.91 in 7.0 miles South 6.9 mph - N/A   Overcast
4:56 PM 28.4°F 28.4°F 100% 29.92 in 10.0 miles South 8.1 mph - N/A   Overcast
4:58 PM 27.5°F 27.5°F 100% 30.01 in 10.0 miles South 8.1 mph - 0.00 in   Overcast
5:53 PM 28.4°F 28.4°F 100% 29.92 in 7.0 miles South 4.6 mph - N/A   Overcast
5:58 PM 27.7°F 27.7°F 100% 30.01 in 6.0 miles South 4.6 mph - 0.00 in   Overcast
6:07 PM 28.4°F 28.4°F 100% 29.91 in 4.0 miles SSW 4.6 mph - N/A   Overcast
6:11 PM 28.4°F 28.4°F 100% 29.91 in 5.0 miles South 6.9 mph - N/A   Light Freezing Drizzle
6:55 PM 27.3°F 27.3°F 100% 30.00 in 10.0 miles SSW 8.1 mph - N/A   Overcast
7:52 PM 28.4°F 28.4°F 100% 29.91 in 10.0 miles South 5.8 mph - N/A   Overcast
7:58 PM 27.7°F 27.7°F 100% 30.00 in 10.0 miles South 5.8 mph - 0.00 in   Overcast
8:03 PM 28.4°F 28.4°F 100% 29.91 in 10.0 miles SSW 5.8 mph - N/A   Overcast
8:06 PM 26.6°F 26.6°F 100% 29.91 in 9.0 miles SSW 8.1 mph - N/A   Overcast
8:26 PM 28.4°F 28.4°F 100% 29.90 in 4.0 miles SSW 5.8 mph - N/A   Overcast
8:36 PM 28.4°F 28.4°F 100% 29.90 in 2.5 miles SSW 3.5 mph - N/A   Overcast
8:51 PM 28.4°F 28.4°F 100% 29.90 in 3.0 miles SSW 2.3 mph - N/A   Overcast
8:58 PM 28.2°F 28.2°F 100% 29.99 in 4.0 miles SW 1.2 mph - 0.00 in   Overcast
9:23 PM 28.4°F 28.4°F 100% 29.90 in 5.0 miles Calm Calm - N/A   Overcast
9:53 PM 28.4°F 28.4°F 100% 29.90 in 6.0 miles SE 3.5 mph - N/A   Overcast
9:58 PM 28.9°F 28.9°F 100% 29.98 in 6.0 miles SSE 3.5 mph - 0.00 in   Overcast
10:13 PM 28.4°F 28.4°F 100% 29.90 in 9.0 miles SSE 3.5 mph - N/A   Overcast
10:16 PM 30.2°F 30.2°F 100% 29.90 in 10.0 miles SSE 3.5 mph - N/A   Overcast
10:36 PM 30.2°F 30.2°F 100% 29.89 in 10.0 miles South 3.5 mph - N/A   Overcast
10:41 PM 30.2°F 30.2°F 100% 29.89 in 10.0 miles South 2.3 mph - N/A   Overcast
10:44 PM 30.2°F 30.2°F 100% 29.89 in 10.0 miles SSW 2.3 mph - N/A   Overcast
10:58 PM 29.8°F 29.8°F 100% 29.98 in 6.0 miles South 2.3 mph - 0.00 in Snow Light Snow
11:13 PM 30.2°F 30.2°F 100% 29.89 in 4.0 miles South 2.3 mph - N/A Snow Light Snow
11:23 PM 30.2°F 30.2°F 100% 29.89 in 4.0 miles South 3.5 mph - N/A Snow Light Snow
11:28 PM 30.2°F 30.2°F 100% 29.89 in 4.0 miles South 4.6 mph - N/A Snow Light Snow
11:58 PM 30.2°F 30.2°F 100% 29.96 in 4.0 miles South 4.6 mph - 0.01 in Snow Light Snow
Moon Phase
Jan. 27 Feb. 03 Feb. 10 Feb. 17 Feb. 25
Sunrise:07:22 AM (PST) Moon Rise:05:51 PM (PST)1/27
Sunset:04:44 PM (PST) Moon Set:07:11 AM (PST)1/27

Copyright © 2014 The Weather Underground, Inc.